VK2ADG-1 Weather Reports


Display with metric or nautical units.
time (UTC)temp
F
wind
direction
speed
MPH
gust
MPH
rain 1hr
in
rain 24hr
in
rain mn
in
humidity
%
barometer
mb
20260505075042 53 341 3.0 5.0 0.00 0.00 0.00 74 1019.5
20260505074020 53 337 3.0 6.0 0.00 0.00 0.00 73 1019.3
20260505073017 54 324 4.0 6.0 0.00 0.00 0.00 72 1019.2
20260505072035 54 318 3.0 6.0 0.00 0.00 0.00 71 1018.8
20260505071033 55 314 4.0 7.0 0.00 0.00 0.00 69 1018.9
20260505070030 56 318 4.0 6.0 0.00 0.00 0.00 67 1018.7
20260505065028 56 312 4.0 8.0 0.00 0.00 0.00 66 1018.5
20260505064025 57 306 4.0 6.0 0.00 0.00 0.00 65 1018.6
20260505063023 58 304 3.0 9.0 0.00 0.00 0.00 62 1018.4
20260505062021 58 288 3.0 9.0 0.00 0.00 0.00 62 1018.2
20260505061018 59 289 4.0 7.0 0.00 0.00 0.00 59 1018.1
20260505060036 60 281 3.0 7.0 0.00 0.00 0.00 58 1018.0
20260505055034 60 285 3.0 8.0 0.00 0.00 0.00 58 1018.0
20260505054032 60 288 4.0 9.0 0.00 0.00 0.00 56 1017.9
20260505053029 61 279 3.0 6.0 0.00 0.00 0.00 55 1017.6
20260505052027 60 271 4.0 8.0 0.00 0.00 0.00 56 1017.5
20260505051024 61 250 3.0 5.0 0.00 0.00 0.00 54 1017.5
20260505041030 61 297 5.0 9.0 0.00 0.02 0.00 55 1016.9
20260505040027 61 297 4.0 10.0 0.00 0.02 0.00 56 1016.8
20260505035025 61 302 4.0 12.0 0.00 0.02 0.00 56 1017.0
20260505034104 61 308 5.0 12.0 0.00 0.02 0.00 56 1017.0
20260505033020 60 298 5.0 14.0 0.00 0.02 0.00 54 1017.0
20260505032040 61 313 4.0 9.0 0.00 0.02 0.00 56 1017.0
20260505031037 61 309 5.0 13.0 0.00 0.02 0.00 55 1017.1
20260505030054 60 305 5.0 11.0 0.00 0.02 0.00 57 1017.3
20260505025032 60 295 5.0 12.0 0.00 0.02 0.00 55 1017.3
20260505024029 61 286 3.0 9.0 0.00 0.02 0.00 56 1017.7
20260505023027 59 284 5.0 10.0 0.00 0.02 0.00 56 1017.7
20260505022024 59 285 5.0 14.0 0.00 0.02 0.00 56 1017.9
20260505021022 60 292 4.0 9.0 0.00 0.02 0.00 60 1018.1
20260505020041 59 291 4.0 9.0 0.00 0.02 0.00 63 1018.3
20260505015036 59 294 3.0 6.0 0.00 0.02 0.00 64 1018.3
20260505014034 59 296 4.0 7.0 0.00 0.02 0.00 65 1018.2
20260505013033 58 309 5.0 14.0 0.00 0.02 0.00 67 1018.2
20260505012030 57 299 4.0 8.0 0.00 0.02 0.00 68 1018.4
20260505011028 57 308 4.0 10.0 0.00 0.02 0.00 68 1018.5
20260505010026 57 310 4.0 12.0 0.00 0.02 0.00 71 1018.6
20260505005022 57 303 4.0 7.0 0.00 0.02 0.00 71 1019.0
20260505004020 56 288 3.0 6.0 0.00 0.02 0.00 73 1019.1
20260505003018 56 302 4.0 7.0 0.00 0.02 0.00 73 1019.0
20260505002057 56 302 4.0 8.0 0.00 0.02 0.00 73 1018.9
20260505001034 56 304 5.0 8.0 0.00 0.02 0.00 74 1018.9
20260505000032 55 313 4.0 6.0 0.00 0.02 0.00 75 1019.0
20260504235029 54 314 5.0 9.0 0.00 0.02 0.00 77 1019.2
20260504234026 55 306 4.0 9.0 0.00 0.02 0.00 77 1019.1
20260504233044 54 314 4.0 8.0 0.00 0.03 0.00 78 1019.0
20260504232042 54 309 5.0 8.0 0.00 0.04 0.00 79 1018.9
20260504231020 53 323 4.0 7.0 0.00 0.04 0.00 81 1018.7
20260504230017 53 325 5.0 9.0 0.00 0.04 0.00 83 1018.5
20260504225055 52 315 5.0 9.0 0.00 0.04 0.00 84 1018.8
20260504224033 53 321 4.0 8.0 0.00 0.04 0.00 83 1018.6
20260504223030 51 324 5.0 8.0 0.00 0.04 0.00 86 1018.7
20260504222028 50 332 4.0 7.0 0.00 0.04 0.00 88 1018.6
20260504221025 50 322 5.0 9.0 0.00 0.04 0.00 89 1018.1
20260504220023 50 322 4.0 8.0 0.00 0.04 0.00 89 1018.1
20260504215021 49 320 4.0 7.0 0.00 0.05 0.00 89 1018.0
20260504214018 49 331 4.0 6.0 0.00 0.05 0.00 90 1017.8
20260504213057 49 329 4.0 8.0 0.00 0.05 0.00 90 1017.4
20260504212116 49 338 3.0 5.0 0.00 0.05 0.00 90 1017.3
20260504211032 49 327 4.0 6.0 0.00 0.05 0.00 90 1017.2
20260504210109 49 313 4.0 7.0 0.00 0.05 0.00 89 1017.1
20260504205027 49 317 5.0 9.0 0.00 0.05 0.00 89 1016.8
20260504204024 49 323 5.0 7.0 0.00 0.05 0.00 90 1016.7
20260504203022 49 325 4.0 7.0 0.00 0.05 0.00 90 1016.6
20260504202020 49 322 5.0 10.0 0.00 0.05 0.00 90 1016.5
20260504201018 48 336 4.0 8.0 0.00 0.05 0.00 91 1016.2
20260504200035 48 335 4.0 10.0 0.00 0.05 0.00 91 1015.8
20260504195033 48 340 4.0 7.0 0.00 0.05 0.00 91 1015.6
20260504194030 48 349 3.0 6.0 0.00 0.05 0.00 91 1015.6
20260504193028 48 344 3.0 6.0 0.00 0.05 0.00 90 1015.5
20260504192047 48 343 4.0 6.0 0.00 0.05 0.00 90 1015.5
20260504191023 49 344 4.0 7.0 0.00 0.05 0.00 90 1015.6
20260504190020 49 337 4.0 6.0 0.00 0.05 0.00 89 1015.5
20260504185019 49 338 4.0 5.0 0.00 0.05 0.00 88 1015.4
20260504184036 49 329 4.0 7.0 0.00 0.05 0.00 88 1015.4
20260504183056 50 341 4.0 6.0 0.00 0.05 0.00 88 1015.4
20260504182031 50 339 4.0 7.0 0.00 0.05 0.00 88 1015.2
20260504181029 49 335 4.0 9.0 0.00 0.05 0.00 88 1015.2
20260504180027 49 342 4.0 6.0 0.00 0.05 0.00 89 1015.1
20260504175024 49 331 4.0 6.0 0.00 0.05 0.00 88 1015.0
20260504174021 49 331 5.0 8.0 0.00 0.05 0.00 89 1015.0
20260504173020 49 340 4.0 7.0 0.00 0.05 0.00 90 1014.9
20260504172016 48 340 3.0 6.0 0.00 0.05 0.00 91 1014.8
20260504171035 49 336 4.0 8.0 0.00 0.05 0.00 91 1014.9
20260504151026 48 346 4.0 6.0 0.00 0.06 0.00 96 1015.8
20260504141033 48 344 3.0 4.0 0.00 0.06 0.00 98 1015.9
20260504081028 53 330 3.0 6.0 0.00 0.06 0.06 94 1015.3